CFG5PC LEPA-EDLW

Flight info

Callsign CFG5PC
Flight time 2h 9m
Altitude 34000
Route GALAT DCT RODRA DCT VNV DCT ANTON DCT BISES DCT SADUR DCT CAVES DCT LATRO DCT OLOXO DCT OKABI DCT TOU DCT ADABI DCT BOKNO DCT DIBES DCT VIQAQ DCT TSU UN858 OQQAL DCT RANUX DCT VALEK DCT LUTAX UM163 DIK T856 AFNAF M170 ADEMI ADEMI2A
Aircraft A321/M-SDE3FGHIRWY/LB1

Departure

Time 2026-05-05 17:01
Airport Palma de Mallorca Airport (LEPA)

Arrival

Time 2026-05-05 19:10
Airport Dortmund Airport (EDLW)
Time Latitude Longitude Altitude Speed Heading
2026-05-05 16:41 39.55047 2.73535 39 ft 0 kts 165°
2026-05-05 16:52 39.55061 2.73530 38 ft 2 kts 166°
2026-05-05 16:52 39.55077 2.73524 36 ft 2 kts 166°
2026-05-05 16:52 39.55090 2.73513 36 ft 2 kts 80°
2026-05-05 16:52 39.55084 2.73494 36 ft 2 kts 57°
2026-05-05 16:53 39.55077 2.73479 36 ft 1 kts 60°
2026-05-05 16:53 39.55076 2.73477 37 ft 0 kts 62°
2026-05-05 16:54 39.55076 2.73478 37 ft 0 kts 62°
2026-05-05 16:54 39.55092 2.73511 38 ft 9 kts 59°
2026-05-05 16:55 39.55133 2.73600 38 ft 16 kts 59°
2026-05-05 16:55 39.55178 2.73725 38 ft 11 kts 99°
2026-05-05 16:55 39.55177 2.73808 38 ft 9 kts 60°
2026-05-05 16:55 39.55222 2.73814 38 ft 8 kts 333°
2026-05-05 16:56 39.55302 2.73751 38 ft 20 kts 328°
2026-05-05 16:56 39.55451 2.73633 38 ft 28 kts 329°
2026-05-05 16:56 39.55585 2.73527 38 ft 19 kts 328°
2026-05-05 16:56 39.55654 2.73504 38 ft 8 kts 41°
2026-05-05 16:57 39.55692 2.73581 38 ft 16 kts 59°
2026-05-05 16:57 39.55774 2.73757 38 ft 26 kts 58°
2026-05-05 16:57 39.55867 2.73951 37 ft 24 kts 58°
2026-05-05 16:57 39.55953 2.74133 38 ft 23 kts 59°
2026-05-05 16:58 39.56033 2.74302 38 ft 21 kts 58°
2026-05-05 16:58 39.56096 2.74426 38 ft 13 kts 46°
2026-05-05 16:58 39.56170 2.74447 38 ft 11 kts 333°
2026-05-05 16:58 39.56229 2.74400 38 ft 9 kts 324°
2026-05-05 16:59 39.56259 2.74340 38 ft 7 kts 262°
2026-05-05 16:59 39.56251 2.74318 38 ft 0 kts 241°
2026-05-05 16:59 39.56251 2.74317 38 ft 0 kts 239°
2026-05-05 16:59 39.56239 2.74292 36 ft 12 kts 239°
2026-05-05 17:00 39.56075 2.73942 38 ft 78 kts 238°
2026-05-05 17:00 39.55694 2.73137 36 ft 130 kts 238°
2026-05-05 17:00 39.55150 2.71983 50 ft 167 kts 239°
2026-05-05 17:00 39.54534 2.70668 511 ft 171 kts 238°
2026-05-05 17:01 39.53898 2.69361 1124 ft 171 kts 237°
2026-05-05 17:01 39.53252 2.68062 1608 ft 171 kts 239°
2026-05-05 17:01 39.52607 2.66766 2054 ft 172 kts 238°
2026-05-05 17:01 39.51943 2.65466 2456 ft 174 kts 238°
2026-05-05 17:02 39.51269 2.64166 2913 ft 173 kts 238°
2026-05-05 17:02 39.50599 2.62867 3316 ft 176 kts 239°
2026-05-05 17:02 39.49887 2.61478 3456 ft 193 kts 239°
2026-05-05 17:02 39.49112 2.59960 3614 ft 209 kts 239°
2026-05-05 17:03 39.48301 2.58376 4032 ft 213 kts 239°
2026-05-05 17:03 39.47482 2.56786 4629 ft 211 kts 239°
2026-05-05 17:03 39.46670 2.55209 5206 ft 211 kts 239°
2026-05-05 17:03 39.45856 2.53621 5732 ft 212 kts 239°
2026-05-05 17:04 39.45122 2.51957 6175 ft 218 kts 254°
2026-05-05 17:04 39.45201 2.49956 6334 ft 237 kts 291°
2026-05-05 17:04 39.46283 2.48292 6704 ft 250 kts 318°
2026-05-05 17:04 39.47712 2.46870 7015 ft 266 kts 318°
2026-05-05 17:05 39.49176 2.45408 7571 ft 272 kts 318°
2026-05-05 17:05 39.50682 2.43897 8195 ft 276 kts 317°
2026-05-05 17:05 39.52211 2.42354 8823 ft 280 kts 317°
2026-05-05 17:05 39.53756 2.40790 9469 ft 284 kts 317°
2026-05-05 17:06 39.55361 2.39266 10064 ft 290 kts 324°
2026-05-05 17:06 39.57162 2.37916 10323 ft 309 kts 325°
2026-05-05 17:06 39.59084 2.36478 10453 ft 329 kts 325°
2026-05-05 17:06 39.61131 2.34946 10605 ft 349 kts 325°
2026-05-05 17:07 39.63263 2.33357 11055 ft 356 kts 325°
2026-05-05 17:07 39.65425 2.31751 11590 ft 360 kts 325°
2026-05-05 17:07 39.67610 2.30130 12173 ft 364 kts 325°
2026-05-05 17:07 39.69821 2.28487 12747 ft 367 kts 324°
2026-05-05 17:08 39.72041 2.26828 13352 ft 370 kts 324°
2026-05-05 17:08 39.74286 2.25144 13893 ft 374 kts 324°
2026-05-05 17:08 39.76549 2.23445 14410 ft 377 kts 324°
2026-05-05 17:08 39.78825 2.21737 14966 ft 379 kts 324°
2026-05-05 17:09 39.81118 2.20014 15484 ft 382 kts 323°
2026-05-05 17:09 39.83421 2.18284 16006 ft 384 kts 323°
2026-05-05 17:09 39.85746 2.16533 16528 ft 386 kts 323°
2026-05-05 17:09 39.88079 2.14776 17042 ft 389 kts 323°
2026-05-05 17:10 39.90398 2.13032 17541 ft 391 kts 323°
2026-05-05 17:10 39.92763 2.11250 18042 ft 393 kts 322°
2026-05-05 17:10 39.95140 2.09458 18485 ft 395 kts 322°
2026-05-05 17:10 39.97523 2.07662 18914 ft 397 kts 322°
2026-05-05 17:11 39.99917 2.05859 19337 ft 398 kts 322°
2026-05-05 17:11 40.02318 2.04045 19802 ft 399 kts 322°
2026-05-05 17:11 40.04722 2.02224 20232 ft 401 kts 322°
2026-05-05 17:11 40.07139 2.00393 20659 ft 402 kts 321°
2026-05-05 17:12 40.09566 1.98550 21074 ft 404 kts 321°
2026-05-05 17:12 40.11997 1.96701 21492 ft 405 kts 321°
2026-05-05 17:12 40.14498 1.94944 21889 ft 414 kts 327°
2026-05-05 17:12 40.17257 1.93694 22299 ft 427 kts 338°
2026-05-05 17:13 40.20208 1.92956 22699 ft 433 kts 341°
2026-05-05 17:13 40.23181 1.92275 23093 ft 435 kts 341°
2026-05-05 17:13 40.26177 1.91586 23473 ft 438 kts 340°
2026-05-05 17:13 40.29191 1.90891 23773 ft 442 kts 340°
2026-05-05 17:14 40.32192 1.90205 24037 ft 446 kts 341°
2026-05-05 17:14 40.35284 1.89584 24318 ft 450 kts 343°
2026-05-05 17:14 40.38400 1.89046 24610 ft 453 kts 343°
2026-05-05 17:14 40.41544 1.88554 24903 ft 456 kts 344°
2026-05-05 17:15 40.43638 1.88236 25098 ft 457 kts 344°
2026-05-05 17:15 40.46816 1.87749 25423 ft 459 kts 344°
2026-05-05 17:15 40.49994 1.87245 25674 ft 462 kts 343°
2026-05-05 17:15 40.53197 1.86722 25942 ft 464 kts 343°
2026-05-05 17:16 40.56411 1.86182 26218 ft 466 kts 343°
2026-05-05 17:16 40.59630 1.85633 26498 ft 468 kts 343°
2026-05-05 17:16 40.62869 1.85077 26774 ft 470 kts 343°
2026-05-05 17:16 40.66125 1.84518 27048 ft 472 kts 343°
2026-05-05 17:17 40.69391 1.83960 27310 ft 474 kts 343°
2026-05-05 17:17 40.72663 1.83406 27566 ft 476 kts 343°
2026-05-05 17:17 40.75954 1.82849 27823 ft 478 kts 343°
2026-05-05 17:17 40.79264 1.82287 28077 ft 479 kts 343°
2026-05-05 17:18 40.82574 1.81723 28328 ft 481 kts 343°
2026-05-05 17:18 40.85906 1.81158 28578 ft 483 kts 343°
2026-05-05 17:18 40.89204 1.80600 28825 ft 485 kts 343°
2026-05-05 17:18 40.92595 1.80023 29088 ft 488 kts 342°
2026-05-05 17:19 40.95968 1.79450 29386 ft 488 kts 342°
2026-05-05 17:19 40.99295 1.78885 29730 ft 487 kts 342°
2026-05-05 17:19 41.02655 1.78314 30045 ft 487 kts 342°
2026-05-05 17:19 41.06016 1.77741 30324 ft 486 kts 342°
2026-05-05 17:20 41.09379 1.77169 30608 ft 486 kts 342°
2026-05-05 17:20 41.12737 1.76594 30942 ft 486 kts 342°
2026-05-05 17:20 41.16086 1.76016 31214 ft 486 kts 342°
2026-05-05 17:20 41.19441 1.75435 31483 ft 486 kts 342°
2026-05-05 17:21 41.22798 1.74855 31747 ft 486 kts 342°
2026-05-05 17:21 41.26158 1.74278 32022 ft 486 kts 342°
2026-05-05 17:21 41.29510 1.73700 32273 ft 486 kts 342°
2026-05-05 17:22 41.36209 1.72546 32838 ft 486 kts 343°
2026-05-05 17:22 41.39529 1.71972 33064 ft 487 kts 343°
2026-05-05 17:22 41.42895 1.71389 33305 ft 487 kts 343°
2026-05-05 17:22 41.46258 1.70807 33560 ft 487 kts 343°
2026-05-05 17:23 41.49633 1.70219 33818 ft 487 kts 343°
2026-05-05 17:23 41.52990 1.69632 34029 ft 487 kts 343°
2026-05-05 17:23 41.56359 1.69047 34287 ft 487 kts 344°
2026-05-05 17:23 41.59713 1.68466 34542 ft 485 kts 344°
2026-05-05 17:24 41.63053 1.67891 34791 ft 484 kts 344°
2026-05-05 17:24 41.66391 1.67318 35007 ft 483 kts 345°
2026-05-05 17:24 41.69717 1.66743 35237 ft 482 kts 345°
2026-05-05 17:24 41.73037 1.66168 35472 ft 480 kts 345°
2026-05-05 17:25 41.76313 1.65595 35696 ft 479 kts 345°
2026-05-05 17:25 41.78544 1.65202 35850 ft 479 kts 345°
2026-05-05 17:25 41.82917 1.64426 35916 ft 477 kts 345°
2026-05-05 17:26 41.89502 1.63264 35925 ft 477 kts 345°
2026-05-05 17:26 41.96080 1.62112 35932 ft 476 kts 345°
2026-05-05 17:27 42.02605 1.60964 35928 ft 476 kts 346°
2026-05-05 17:27 42.09174 1.59803 35928 ft 476 kts 346°
2026-05-05 17:28 42.15742 1.58646 35922 ft 476 kts 346°
2026-05-05 17:28 42.22301 1.57490 35978 ft 476 kts 346°
2026-05-05 17:29 42.28865 1.56319 35984 ft 475 kts 346°
2026-05-05 17:29 42.35415 1.55145 35969 ft 474 kts 346°
2026-05-05 17:30 42.41963 1.53969 35995 ft 476 kts 346°
2026-05-05 17:30 42.48526 1.52796 35988 ft 476 kts 347°
2026-05-05 17:31 42.55079 1.51631 36005 ft 474 kts 347°
2026-05-05 17:31 42.61615 1.50461 36009 ft 473 kts 347°
2026-05-05 17:32 42.68103 1.49292 35996 ft 472 kts 347°
2026-05-05 17:32 42.74613 1.48118 36005 ft 473 kts 347°
2026-05-05 17:33 42.81190 1.46927 36011 ft 476 kts 347°
2026-05-05 17:33 42.87743 1.45748 36013 ft 475 kts 347°
2026-05-05 17:34 42.94282 1.44566 36014 ft 473 kts 347°
2026-05-05 17:34 43.00820 1.43434 36007 ft 473 kts 348°
2026-05-05 17:35 43.07349 1.42324 36020 ft 472 kts 348°
2026-05-05 17:35 43.13822 1.41221 36011 ft 472 kts 348°
2026-05-05 17:36 43.20344 1.40105 36004 ft 472 kts 348°
2026-05-05 17:36 43.26861 1.38985 36005 ft 471 kts 348°
2026-05-05 17:37 43.33367 1.37848 36000 ft 471 kts 348°
2026-05-05 17:37 43.39877 1.36712 35993 ft 471 kts 348°
2026-05-05 17:38 43.46355 1.35586 36001 ft 471 kts 348°
2026-05-05 17:38 43.52866 1.34455 35988 ft 472 kts 348°
2026-05-05 17:39 43.59385 1.33323 35984 ft 472 kts 348°
2026-05-05 17:39 43.65908 1.32175 35998 ft 472 kts 349°
2026-05-05 17:40 43.72429 1.31030 35991 ft 472 kts 349°
2026-05-05 17:40 43.78957 1.29893 35985 ft 472 kts 349°
2026-05-05 17:41 43.85432 1.28754 35989 ft 472 kts 349°
2026-05-05 17:41 43.91949 1.27600 35978 ft 472 kts 349°
2026-05-05 17:42 43.98474 1.26449 35962 ft 472 kts 349°
2026-05-05 17:42 44.04989 1.25296 35976 ft 472 kts 349°
2026-05-05 17:43 44.11503 1.24133 35969 ft 471 kts 349°
2026-05-05 17:43 44.18010 1.22969 35961 ft 471 kts 349°
2026-05-05 17:44 44.24512 1.21805 35966 ft 471 kts 349°
2026-05-05 17:44 44.30975 1.20651 35958 ft 471 kts 349°
2026-05-05 17:45 44.37476 1.19486 35954 ft 471 kts 349°
2026-05-05 17:45 44.43979 1.18318 35958 ft 471 kts 350°
2026-05-05 17:46 44.50475 1.17150 35946 ft 471 kts 350°
2026-05-05 17:46 44.56967 1.15971 35947 ft 470 kts 350°
2026-05-05 17:47 44.63465 1.14802 35950 ft 470 kts 350°
2026-05-05 17:47 44.69955 1.13632 35955 ft 470 kts 350°
2026-05-05 17:48 44.76438 1.12453 35947 ft 470 kts 350°
2026-05-05 17:48 44.82922 1.11275 35941 ft 469 kts 350°
2026-05-05 17:49 44.89358 1.10096 35939 ft 469 kts 350°
2026-05-05 17:49 44.95859 1.08894 35948 ft 473 kts 350°
2026-05-05 17:50 45.02391 1.07687 35958 ft 473 kts 351°
2026-05-05 17:50 45.08906 1.06500 35952 ft 472 kts 351°
2026-05-05 17:51 45.15407 1.05309 35951 ft 471 kts 351°
2026-05-05 17:51 45.21907 1.04109 35955 ft 470 kts 351°
2026-05-05 17:52 45.28407 1.02910 35956 ft 470 kts 351°
2026-05-05 17:52 45.34846 1.01710 35953 ft 469 kts 351°
2026-05-05 17:53 45.41314 1.00503 35951 ft 469 kts 351°
2026-05-05 17:53 45.47781 0.99300 35950 ft 469 kts 351°
2026-05-05 17:54 45.54268 0.98088 35947 ft 469 kts 351°
2026-05-05 17:54 45.60746 0.96874 35951 ft 469 kts 351°
2026-05-05 17:55 45.67210 0.95670 35942 ft 469 kts 351°
2026-05-05 17:55 45.73642 0.94465 35934 ft 468 kts 351°
2026-05-05 17:56 45.80102 0.93238 35933 ft 468 kts 351°
2026-05-05 17:56 45.86566 0.92008 35935 ft 469 kts 351°
2026-05-05 17:57 45.93039 0.90787 35921 ft 469 kts 351°
2026-05-05 17:57 45.99509 0.89563 35924 ft 469 kts 351°
2026-05-05 17:58 46.05974 0.88336 35920 ft 469 kts 351°
2026-05-05 17:58 46.12443 0.87098 35908 ft 469 kts 351°
2026-05-05 17:59 46.18914 0.85864 35910 ft 469 kts 351°
2026-05-05 17:59 46.25380 0.84623 35903 ft 469 kts 351°
2026-05-05 18:00 46.31801 0.83385 35903 ft 469 kts 351°
2026-05-05 18:00 46.38269 0.82133 35898 ft 469 kts 351°
2026-05-05 18:01 46.44736 0.80886 35897 ft 469 kts 352°
2026-05-05 18:01 46.51198 0.79643 35892 ft 468 kts 352°
2026-05-05 18:02 46.57652 0.78390 35895 ft 468 kts 352°
2026-05-05 18:02 46.64102 0.77137 35893 ft 467 kts 352°
2026-05-05 18:03 46.69450 0.76100 35883 ft 467 kts 352°
2026-05-05 18:03 46.75884 0.74846 35877 ft 466 kts 352°
2026-05-05 18:04 46.82309 0.73588 35880 ft 466 kts 352°
2026-05-05 18:04 46.88750 0.72417 35874 ft 465 kts 359°
2026-05-05 18:04 46.91960 0.72865 35865 ft 464 kts 15°
2026-05-05 18:05 46.94975 0.74484 35863 ft 462 kts 27°
2026-05-05 18:05 47.00738 0.78667 35857 ft 462 kts 27°
2026-05-05 18:06 47.06479 0.82862 35852 ft 463 kts 27°
2026-05-05 18:06 47.12252 0.87069 35853 ft 464 kts 27°
2026-05-05 18:07 47.18039 0.91287 35853 ft 464 kts 27°
2026-05-05 18:07 47.23825 0.95520 35851 ft 464 kts 27°
2026-05-05 18:08 47.29602 0.99764 35864 ft 464 kts 27°
2026-05-05 18:08 47.35392 1.04019 35864 ft 465 kts 27°
2026-05-05 18:09 47.41176 1.08271 35864 ft 464 kts 27°
2026-05-05 18:09 47.46948 1.12533 35870 ft 463 kts 27°
2026-05-05 18:10 47.52669 1.16769 35873 ft 462 kts 27°
2026-05-05 18:10 47.58425 1.21049 35861 ft 462 kts 27°
2026-05-05 18:11 47.64165 1.25317 35874 ft 461 kts 27°
2026-05-05 18:11 47.69896 1.29584 35854 ft 460 kts 27°
2026-05-05 18:12 47.75615 1.33866 35858 ft 460 kts 27°
2026-05-05 18:12 47.81329 1.38158 35863 ft 460 kts 27°
2026-05-05 18:13 47.87033 1.42446 35864 ft 458 kts 27°
2026-05-05 18:13 47.92720 1.46724 35858 ft 458 kts 28°
2026-05-05 18:14 47.98408 1.51012 35848 ft 457 kts 28°
2026-05-05 18:14 48.04039 1.55275 35846 ft 457 kts 28°
2026-05-05 18:15 48.09710 1.59589 35852 ft 456 kts 28°
2026-05-05 18:15 48.15365 1.63898 35849 ft 456 kts 28°
2026-05-05 18:16 48.21018 1.68207 35842 ft 456 kts 28°
2026-05-05 18:16 48.26661 1.72528 35833 ft 456 kts 28°
2026-05-05 18:17 48.32310 1.76858 35822 ft 456 kts 28°
2026-05-05 18:17 48.37926 1.81177 35829 ft 456 kts 28°
2026-05-05 18:18 48.43585 1.85532 35847 ft 457 kts 28°
2026-05-05 18:18 48.49247 1.89905 35852 ft 456 kts 29°
2026-05-05 18:19 48.54895 1.94284 35849 ft 456 kts 28°
2026-05-05 18:19 48.60458 1.98864 35829 ft 456 kts 39°
2026-05-05 18:19 48.62734 2.02152 35857 ft 451 kts 54°
2026-05-05 18:20 48.64340 2.06187 35854 ft 446 kts 69°
2026-05-05 18:20 48.66628 2.14878 35860 ft 445 kts 70°
2026-05-05 18:21 48.68891 2.23583 35853 ft 444 kts 70°
2026-05-05 18:21 48.71142 2.32281 35853 ft 444 kts 70°
2026-05-05 18:22 48.73396 2.40990 35854 ft 444 kts 70°
2026-05-05 18:22 48.75648 2.49711 35853 ft 444 kts 70°
2026-05-05 18:23 48.77895 2.58440 35850 ft 444 kts 70°
2026-05-05 18:23 48.80119 2.67112 35818 ft 444 kts 70°
2026-05-05 18:24 48.82350 2.75851 35819 ft 445 kts 70°
2026-05-05 18:24 48.84575 2.84633 35823 ft 445 kts 71°
2026-05-05 18:25 48.86793 2.93415 35828 ft 445 kts 71°
2026-05-05 18:25 48.88984 3.02091 35827 ft 445 kts 71°
2026-05-05 18:26 48.91191 3.10888 35816 ft 445 kts 71°
2026-05-05 18:26 48.93380 3.19699 35811 ft 445 kts 71°
2026-05-05 18:27 48.95570 3.28515 35814 ft 445 kts 71°
2026-05-05 18:27 48.97756 3.37343 35813 ft 445 kts 71°
2026-05-05 18:28 49.01037 3.50571 35810 ft 445 kts 71°
2026-05-05 18:28 49.03190 3.59362 35793 ft 446 kts 71°
2026-05-05 18:29 49.05348 3.68229 35793 ft 446 kts 71°
2026-05-05 18:29 49.07512 3.77097 35797 ft 446 kts 71°
2026-05-05 18:30 49.09670 3.85987 35800 ft 446 kts 71°
2026-05-05 18:30 49.11818 3.94871 35798 ft 446 kts 71°
2026-05-05 18:31 49.13964 4.03771 35806 ft 446 kts 72°
2026-05-05 18:31 49.16095 4.12666 35806 ft 446 kts 72°
2026-05-05 18:32 49.18213 4.21564 35809 ft 446 kts 72°
2026-05-05 18:32 49.20320 4.30417 35804 ft 446 kts 72°
2026-05-05 18:33 49.22433 4.39333 35789 ft 446 kts 72°
2026-05-05 18:33 49.24541 4.48254 35779 ft 445 kts 72°
2026-05-05 18:34 49.26633 4.57187 35789 ft 446 kts 72°
2026-05-05 18:34 49.28720 4.66136 35789 ft 446 kts 72°
2026-05-05 18:35 49.30787 4.75028 35787 ft 446 kts 72°
2026-05-05 18:35 49.32869 4.83986 35796 ft 446 kts 72°
2026-05-05 18:36 49.34941 4.92941 35782 ft 446 kts 73°
2026-05-05 18:36 49.37006 5.01918 35786 ft 447 kts 73°
2026-05-05 18:37 49.39076 5.10929 35792 ft 448 kts 73°
2026-05-05 18:37 49.41140 5.19964 35798 ft 448 kts 73°
2026-05-05 18:38 49.43192 5.28999 35810 ft 448 kts 73°
2026-05-05 18:38 49.45229 5.38046 35813 ft 447 kts 73°
2026-05-05 18:39 49.47265 5.47088 35810 ft 447 kts 73°
2026-05-05 18:39 49.49298 5.56123 35814 ft 448 kts 73°
2026-05-05 18:40 49.52124 5.64558 35807 ft 453 kts 49°
2026-05-05 18:40 49.54466 5.67805 35807 ft 455 kts 38°
2026-05-05 18:40 49.57114 5.70507 35807 ft 457 kts 34°
2026-05-05 18:41 49.62478 5.75775 35805 ft 458 kts 34°
2026-05-05 18:41 49.67850 5.81086 35811 ft 458 kts 34°
2026-05-05 18:42 49.73220 5.86385 35814 ft 458 kts 34°
2026-05-05 18:42 49.78598 5.91700 35807 ft 458 kts 34°
2026-05-05 18:43 49.83973 5.97026 35812 ft 458 kts 34°
2026-05-05 18:43 49.89347 6.02357 35821 ft 459 kts 35°
2026-05-05 18:44 49.94683 6.07680 35829 ft 459 kts 35°
2026-05-05 18:44 50.00052 6.13038 35831 ft 458 kts 35°
2026-05-05 18:45 50.05413 6.18416 35829 ft 459 kts 35°
2026-05-05 18:45 50.10776 6.23820 35808 ft 459 kts 35°
2026-05-05 18:46 50.16136 6.29223 35807 ft 459 kts 35°
2026-05-05 18:46 50.21509 6.34643 35809 ft 460 kts 35°
2026-05-05 18:47 50.26865 6.40068 35808 ft 460 kts 35°
2026-05-05 18:47 50.32229 6.45511 35802 ft 461 kts 35°
2026-05-05 18:48 50.34918 6.48249 35673 ft 460 kts 36°
2026-05-05 18:48 50.37600 6.50989 35087 ft 460 kts 36°
2026-05-05 18:48 50.40264 6.53739 34516 ft 459 kts 37°
2026-05-05 18:48 50.42928 6.56506 33972 ft 457 kts 37°
2026-05-05 18:49 50.45566 6.59260 33267 ft 455 kts 37°
2026-05-05 18:49 50.48207 6.62025 32413 ft 456 kts 37°
2026-05-05 18:49 50.49958 6.63857 31948 ft 455 kts 37°
2026-05-05 18:49 50.52579 6.66596 31341 ft 449 kts 37°
2026-05-05 18:50 50.55158 6.69296 30762 ft 444 kts 37°
2026-05-05 18:50 50.57716 6.71978 30193 ft 439 kts 37°
2026-05-05 18:50 50.60247 6.74639 29594 ft 434 kts 36°
2026-05-05 18:50 50.62751 6.77269 28944 ft 429 kts 36°
2026-05-05 18:51 50.65223 6.79868 28287 ft 425 kts 36°
2026-05-05 18:51 50.67688 6.82404 27633 ft 422 kts 32°
2026-05-05 18:51 50.70345 6.84358 26958 ft 422 kts 21°
2026-05-05 18:51 50.73183 6.85516 26313 ft 421 kts 10°
2026-05-05 18:52 50.76094 6.85844 25686 ft 418 kts 359°
2026-05-05 18:52 50.78982 6.85633 24813 ft 413 kts 358°
2026-05-05 18:52 50.81839 6.85405 23991 ft 408 kts 358°
2026-05-05 18:52 50.84667 6.85183 23146 ft 403 kts 358°
2026-05-05 18:53 50.87421 6.84970 22237 ft 398 kts 358°
2026-05-05 18:53 50.90165 6.84758 21353 ft 392 kts 358°
2026-05-05 18:53 50.92869 6.84852 20507 ft 385 kts 11°
2026-05-05 18:53 50.95417 6.85992 19706 ft 378 kts 25°
2026-05-05 18:54 50.97705 6.87942 18887 ft 371 kts 36°
2026-05-05 18:54 50.99694 6.90501 18107 ft 366 kts 46°
2026-05-05 18:54 51.01338 6.93531 17236 ft 360 kts 55°
2026-05-05 18:54 51.02842 6.96698 16380 ft 356 kts 54°
2026-05-05 18:55 51.04325 6.99828 15575 ft 353 kts 54°
2026-05-05 18:55 51.05792 7.02929 14790 ft 349 kts 54°
2026-05-05 18:55 51.07242 7.05998 14031 ft 345 kts 55°
2026-05-05 18:55 51.08672 7.09041 13249 ft 342 kts 54°
2026-05-05 18:56 51.10082 7.12053 12449 ft 338 kts 54°
2026-05-05 18:56 51.11476 7.15032 11688 ft 334 kts 54°
2026-05-05 18:56 51.12858 7.17982 10932 ft 330 kts 54°
2026-05-05 18:56 51.14217 7.20884 10197 ft 325 kts 54°
2026-05-05 18:57 51.15555 7.23751 9449 ft 320 kts 53°
2026-05-05 18:57 51.16873 7.26583 8651 ft 316 kts 53°
2026-05-05 18:57 51.18177 7.29383 7875 ft 312 kts 54°
2026-05-05 18:57 51.19340 7.32221 7164 ft 307 kts 60°
2026-05-05 18:58 51.20638 7.34759 6906 ft 287 kts 37°
2026-05-05 18:58 51.22352 7.36068 6829 ft 263 kts 16°
2026-05-05 18:58 51.24082 7.36779 6838 ft 254 kts 13°
2026-05-05 18:58 51.25805 7.37430 6532 ft 253 kts 13°
2026-05-05 18:59 51.27520 7.38065 6189 ft 253 kts 13°
2026-05-05 18:59 51.29218 7.38689 5887 ft 247 kts 13°
2026-05-05 18:59 51.30877 7.39296 5381 ft 244 kts 13°
2026-05-05 18:59 51.32537 7.39895 4869 ft 244 kts 13°
2026-05-05 19:00 51.34138 7.40700 4302 ft 240 kts 34°
2026-05-05 19:00 51.35273 7.42525 3874 ft 229 kts 59°
2026-05-05 19:00 51.36064 7.44727 3528 ft 228 kts 63°
2026-05-05 19:00 51.36527 7.46136 3362 ft 226 kts 63°
2026-05-05 19:01 51.37245 7.48361 3091 ft 223 kts 63°
2026-05-05 19:01 51.37943 7.50540 3001 ft 223 kts 63°
2026-05-05 19:01 51.38647 7.52759 3002 ft 224 kts 64°
2026-05-05 19:01 51.39353 7.54986 3008 ft 215 kts 63°
2026-05-05 19:02 51.40002 7.57034 3009 ft 204 kts 64°
2026-05-05 19:02 51.40640 7.59044 3006 ft 201 kts 64°
2026-05-05 19:02 51.41272 7.61031 3009 ft 200 kts 63°
2026-05-05 19:02 51.41902 7.63015 3005 ft 200 kts 63°
2026-05-05 19:03 51.42595 7.64940 3005 ft 200 kts 48°
2026-05-05 19:03 51.43789 7.66051 3010 ft 205 kts 13°
2026-05-05 19:03 51.45202 7.65783 3004 ft 212 kts 336°
2026-05-05 19:03 51.46290 7.64188 3007 ft 218 kts 300°
2026-05-05 19:04 51.46626 7.61841 3014 ft 221 kts 264°
2026-05-05 19:04 51.46114 7.59550 3011 ft 219 kts 238°
2026-05-05 19:04 51.45280 7.57504 3003 ft 219 kts 234°
2026-05-05 19:04 51.44401 7.55495 3006 ft 220 kts 233°
2026-05-05 19:05 51.43518 7.53490 3006 ft 219 kts 233°
2026-05-05 19:05 51.42636 7.51493 3010 ft 220 kts 233°
2026-05-05 19:05 51.41780 7.49463 3009 ft 221 kts 243°
2026-05-05 19:05 51.41504 7.47086 3010 ft 219 kts 279°
2026-05-05 19:06 51.42112 7.44905 3013 ft 215 kts 315°
2026-05-05 19:06 51.43316 7.43654 2925 ft 205 kts 347°
2026-05-05 19:06 51.44715 7.43601 2835 ft 201 kts 17°
2026-05-05 19:06 51.45860 7.44629 2680 ft 183 kts 46°
2026-05-05 19:07 51.46571 7.46304 2489 ft 181 kts 60°
2026-05-05 19:07 51.47187 7.48053 2258 ft 178 kts 60°
2026-05-05 19:07 51.47775 7.49720 2022 ft 170 kts 60°
2026-05-05 19:07 51.48332 7.51299 1814 ft 152 kts 59°
2026-05-05 19:08 51.48839 7.52736 1592 ft 143 kts 58°
2026-05-05 19:08 51.49324 7.54109 1386 ft 141 kts 58°
2026-05-05 19:08 51.49806 7.55476 1191 ft 141 kts 59°
2026-05-05 19:08 51.50297 7.56881 967 ft 148 kts 59°
2026-05-05 19:09 51.50808 7.58316 753 ft 147 kts 58°
2026-05-05 19:09 51.51307 7.59731 572 ft 144 kts 57°
2026-05-05 19:09 51.51795 7.61113 411 ft 136 kts 60°
2026-05-05 19:09 51.52121 7.62041 411 ft 53 kts 61°
2026-05-05 19:10 51.52196 7.62253 411 ft 1 kts 64°
2026-05-05 19:10 51.52199 7.62272 413 ft 7 kts 79°
2026-05-05 19:10 51.52145 7.62349 415 ft 12 kts 150°
2026-05-05 19:10 51.52092 7.62398 410 ft 0 kts 150°
2026-05-05 19:11 51.52090 7.62400 411 ft 1 kts 151°
2026-05-05 19:11 51.52049 7.62378 415 ft 12 kts 234°
2026-05-05 19:11 51.52011 7.62270 410 ft 10 kts 241°
2026-05-05 19:12 51.51982 7.62188 409 ft 8 kts 240°
2026-05-05 19:12 51.51945 7.62085 413 ft 16 kts 240°
2026-05-05 19:12 51.51863 7.61850 413 ft 28 kts 240°
2026-05-05 19:12 51.51773 7.61594 425 ft 23 kts 240°
2026-05-05 19:13 51.51701 7.61389 426 ft 21 kts 240°
2026-05-05 19:13 51.51633 7.61197 426 ft 17 kts 240°
2026-05-05 19:13 51.51583 7.61081 428 ft 10 kts 213°
2026-05-05 19:13 51.51531 7.61063 422 ft 7 kts 183°
2026-05-05 19:14 51.51495 7.61084 425 ft 5 kts 142°
2026-05-05 19:14 51.51472 7.61112 427 ft 3 kts 142°
2026-05-05 19:14 51.51468 7.61117 424 ft 0 kts 143°